Miscellaneous Local Product
Issued by NWS North Platte, NE

Home | Current Version | Previous Version | Graphics & Text | Print | Product List | Glossary On
Versions: 1 2 3 4 5 6 7 8 9 10 11 12 13 14 15 16 17 18 19 20 21 22 23 24 25 26 27 28 29 30 31 32 33 34 35 36 37 38 39 40 41 42 43 44 45 46 47 48 49 50
452
AXUS43 KLBF 230010
MISLBF


WESTERN AND NORTH CENTRAL NEBRASKA HOURLY WEATHER ROUNDUP
NATIONAL WEATHER SERVICE NORTH PLATTE NE
700 PM CDT WED MAR 22 2017

NOTE: "FAIR" INDICATES FEW OR NO CLOUDS BELOW 12,000 FEET WITH NO
SIGNIFICANT WEATHER AND/OR OBSTRUCTIONS TO VISIBILITY.

NOTE: STATIONS NOT REPORTING VARIABLES SUCH AS SKY/WEATHER OR
PRESSURE ARE PROVIDED BY RAWS AND APRS NETWORKS AND ARE NOT UNDER
NATIONAL WEATHER SERVICE QUALITY CONTROL.

...OBSERVATIONS IN AND NEAR THE EASTERN PANHANDLE OF NEBRASKA...

CITY           SKY/WX    TMP DP  RH WIND       PRES   REMARKS
PINE RIDGE     CLOUDY    63  38  39 S18G28    29.81F
CHADRON        CLOUDY    67  37  33 S12       29.78S
ALLIANCE       CLOUDY    60  36  40 S21G28    29.86R
SIDNEY         CLOUDY    62  35  36 SE23G30   29.86F
$$

...OBSERVATIONS IN NORTHERN NEBRASKA AND FAR SOUTHERN SOUTH DAKOTA...

CITY           SKY/WX    TMP DP  RH WIND       PRES   REMARKS
WINNER         FAIR      52  28  39 S28G40    29.92F
VALENTINE      CLOUDY    51  30  44 S24G33    29.92S
THEDFORD       CLOUDY    51  32  48 S14G24    29.97F
AINSWORTH      CLOUDY    49  32  50 S24G32    29.96F
O`NEILL        CLOUDY    52  23  32 SE18      30.03F
ORD            CLOUDY    53  21  28 S20G29    30.03F
BROKEN BOW     CLOUDY    51  27  39 S22G30    30.02F
VALENTINE NWR    N/A     50  30  46 S20G28      N/A
HALSEY           N/A     50  28  43 S13G25      N/A
BUTTE            N/A     48  26  42 SE20G28     N/A
CHAMBERS         N/A     52  27  37 S3G13       N/A
EWING            N/A     49  23  36 SE8G20      N/A
$$

...OBSERVATIONS IN SOUTHWEST NEBRASKA AND FAR NORTHEAST COLORADO...

CITY           SKY/WX    TMP DP  RH WIND       PRES   REMARKS
WRAY           FAIR      61  36  39 SE20G26   29.91F
HOLYOKE        FAIR      59  36  41 SE18      29.91S
IMPERIAL       SUNNY     55  35  47 S25G31    29.94S
OGALLALA       SUNNY     59  34  39 SE15      29.93S
NORTH PLATTE   CLOUDY    52  30  43 SE18G24   29.98F
MCCOOK         CLOUDY    52  33  48 SE16G23   30.01S
LEXINGTON      CLOUDY    51  28  41 SE21      30.04S
STAPLETON        N/A     51  31  45 CALM        N/A
GOTHENBURG       N/A     49  28  43 S13         N/A
CALLAWAY         N/A     49  30  48 S26         N/A
$$

...OBSERVATIONS IN CENTRAL LINCOLN COUNTY AREA...

CITY           SKY/WX    TMP DP  RH WIND       PRES   REMARKS
N.P. AIRPORT   CLOUDY    52  30  43 SE18G24   29.98F
N.P. DOWNTOWN    N/A     51  33  50 SE7G16      N/A
N.P. SOUTHEAST   N/A     51  32  49 SE10G21     N/A
N.P. HILLCREST   N/A     51  33  51 S14G21      N/A
$$

...SOME OBSERVATIONS FROM AROUND THE REGION...

CITY           SKY/WX    TMP DP  RH WIND       PRES   REMARKS
DENVER         CLOUDY    68  34  28 NW6       29.83F
LIMON          CLOUDY    61  38  42 SE13G22   29.91R
ASPEN          CLOUDY    54  26  34 NW8       30.00F
LARAMIE        CLOUDY    60  18  19 SW28G35   29.89S
GILLETTE       CLOUDY    61  40  45 E6        29.78S
CHEYENNE       CLOUDY    63  29  27 S12       29.87F
SCOTTSBLUFF    CLOUDY    68  34  28 SE15      29.80F
GRAND ISLAND   CLOUDY    53  21  28 S17G25    30.09F
OMAHA          CLOUDY    49  24  37 SE22      30.19F
SIOUX FALLS    CLOUDY    39  25  57 SE20G29   30.14F WCI  29
PIERRE         CLEAR     53  30  41 SE26G33   29.86S
RAPID CITY     CLOUDY    61  40  45 N12       29.77S
BISMARCK       CLEAR     44  31  60 SE22      29.88F
KANSAS CITY    CLOUDY    53  25  33 E20G26    30.22F
HILL CITY      CLOUDY    53  34  48 SE12      30.04F
WICHITA        MOCLDY    57  39  51 E9        30.09F
DODGE CITY     CLOUDY    57  38  48 SE18      30.01F
OKLAHOMA CITY  CLOUDY    67  55  65 SE15      30.05R
DALLAS         PTCLDY    80  62  54 S17       30.01R
AMARILLO       SUNNY     69  46  43 SE20      30.00F
$$




USA.gov is the U.S. government's official web portal to all federal, state and local government web resources and services.